Regional Weather Roundup
Issued by NWS

Home | Current Version | Previous Version | Text Only | Print | Product List | Glossary Off
Versions: 1 2 3 4 5 6 7 8 9 10 11 12 13 14 15 16 17 18 19 20 21 22 23 24 25 26 27 28 29 30 31 32 33 34 35 36 37 38 39 40 41 42 43 44 45 46 47 48 49 50

000
ASUS43 KMKX 011421
RWRWI

WISCONSIN REGIONAL WEATHER ROUNDUP
NATIONAL WEATHER SERVICE MILWAUKEE/SULLIVAN WI
900 AM CDT WED JUL 01 2015

NOTE: "FAIR" INDICATES FEW OR NO CLOUDS BELOW 12,000 FEET WITH NO
SIGNIFICANT WEATHER AND/OR OBSTRUCTIONS TO VISIBILITY.

WIZ001-002-006>008-014>016-023>028-011500-
NORTHWEST WISCONSIN

CITY           SKY/WX    TMP DP  RH WIND       PRES   REMARKS
SUPERIOR ARPT  PTSUNNY   60  52  75 CALM      30.02F
ASHLAND        SUNNY     57  53  86 CALM      30.04S
HAYWARD        MOSUNNY   57  50  77 CALM      30.03F
SIREN          PTSUNNY   60  46  58 SE3       30.03S
CUMBERLAND     PTSUNNY   55  45  67 SE5       30.03S
RICE LAKE      PTSUNNY   58  46  66 CALM      30.05R
CHETEK         PTSUNNY   57  49  75 CALM      30.04S
LADYSMITH      MOSUNNY   58  49  73 CALM      30.05S
EAU CLAIRE     PTSUNNY   57  49  74 CALM      30.02S
MENOMONIE      PTSUNNY   58  50  73 SE3       30.03S
NEW RICHMOND   CLOUDY    58  48  69 SE6       30.03R
OSCEOLA        CLOUDY    59  48  67 E5        30.05R
$$

WIZ003>005-009-010-017-018-011500-
NORTH CENTRAL WISCONSIN

CITY           SKY/WX    TMP DP  RH WIND       PRES   REMARKS
MANITOWISH WTR SUNNY     55  46  72 NE7       30.03F
ARBOR VITAE    SUNNY     57  47  68 N7        30.03S
WOODRUFF       SUNNY     57  47  68 N7        30.03S
RHINELANDER    SUNNY     55  43  63 NE9       30.03S
EAGLE RIVER    SUNNY     54  42  64 NE10      30.02F
LAND O LAKES   SUNNY     54  42  63 N8        30.04S
PHILLIPS       PTSUNNY   54  46  73 N3        30.04R
TOMAHAWK       SUNNY     56  44  65 N6        30.04S
MEDFORD        SUNNY     54  44  70 NE6       30.03S
MERRILL        SUNNY     55  46  72 N7        30.03S
$$

WIZ029-030-035-036-043>047-011500-
CENTRAL WISCONSIN

CITY           SKY/WX    TMP DP  RH WIND       PRES   REMARKS
WAUSAU         SUNNY     57  44  62 N7        30.01R
MOSINEE        SUNNY     55  46  71 N5        30.02S
MARSHFIELD     SUNNY     58  43  57 NE8       30.02S
STEVENS POINT  SUNNY     56  43  61 N8        30.01S
WAUPACA        SUNNY     58  46  63 N7        30.00F
WAUTOMA        SUNNY     59  44  57 NE7       30.00S
WISC RAPIDS    SUNNY     59  44  57 N9        30.02S
CAMP DOUGLAS   SUNNY     56  56 100 VRB5      30.01R
$$

WIZ011>013-019>022-031-037>040-048>050-011500-
NORTHEAST WISCONSIN

CITY           SKY/WX    TMP DP  RH WIND       PRES   REMARKS
ANTIGO         SUNNY     53  45  72 N13G18    30.01S
SHAWANO        SUNNY     57  46  66 NE7       30.00R
OCONTO         CLOUDY    50  47  90 N9        29.99R
STURGEON BAY   CLOUDY    52  45  76 N12       30.00S
GREEN BAY      MOSUNNY   56  47  71 NE7       29.99R
MANITOWOC      CLOUDY    56  51  84 MISG      29.98R
APPLETON       MOSUNNY   54  45  71 N9        29.99S
CLINTONVILLE   SUNNY     55  43  62 N8        29.99F
OSHKOSH        SUNNY     57  46  66 NW6       29.98S
$$

WIZ032>034-041-042-053>061-011500-
SOUTHWEST WISCONSIN

CITY           SKY/WX    TMP DP  RH WIND       PRES   REMARKS
LA CROSSE      SUNNY     61  49  64 E10       30.00S
SPARTA         SUNNY     61  44  54 NE8       30.02R
VIROQUA        SUNNY     58  48  68 E6        30.01R
BOSCOBEL       SUNNY     60  50  69 NE6       30.00R
PRAIRIE DU CHI SUNNY     60  51  71 NE7       29.99R
PLATTEVILLE    CLOUDY    60  56  88 NE7       29.99R
$$

WIZ056-057-062-063-064-067-068-011500-
SOUTH CENTRAL WISCONSIN

CITY           SKY/WX    TMP DP  RH WIND       PRES   REMARKS
REEDSBURG      SUNNY     58  45  61 NE8       30.00R
BARABOO/DELLS  MOSUNNY   58  45  60 N5        30.00S
LONE ROCK      SUNNY     60  48  64 E5        30.00S
MINERAL POINT  PTSUNNY   61  55  82 E5        29.99S
MADISON        MOSUNNY   61  45  55 N3        29.99R
MIDDLETON      SUNNY     61  44  53 NE5       30.00S
WATERTOWN      SUNNY     59  48  66 N7        29.98S
MONROE         CLOUDY    59  54  82 N8        29.98S
JANESVILLE     CLOUDY    61  57  88 CALM      29.97S
$$

WIZ051-052-058>065-066-070>072-011500-
SOUTHEAST WISCONSIN

CITY           SKY/WX    TMP DP  RH WIND       PRES   REMARKS
MILWAUKEE      MOSUNNY   61  46  57 NW7       29.98S
WAUKESHA       MOSUNNY   55  46  71 NW7       29.98S
MILWAUKEE/TIMM SUNNY     57  46  67 NW6       29.98S
RACINE         SUNNY     61  49  64 NW6       29.99S
BURLINGTON     PTSUNNY   59  52  77 NW6       29.97S
KENOSHA        MOSUNNY   61  51  70 VRB7      29.97S
FOND DU LAC    MOSUNNY   59  48  67 NW7       29.99R
SHEBOYGAN      CLOUDY    57  49  74 W6        29.97S
WEST BEND      SUNNY     55  46  71 N6        29.98S
JUNEAU         SUNNY     56  46  70 NW6       30.00R
$$

LSZ147-162-011500-
LAKE SUPERIOR

STATION/POSITION TIME  TEMP    WIND        PRES    WAVE
                       AIR SEA DIR/SP/G            HT/PER
                 (UTC) (F)     (DEG/KT/KT) (MB)    (FT/S)
W MID LAKE BUOY  1350   42 38  220/  6/  6 1017.7R   1
DEVILS ISLAND    1400   56     190/  1/  3 1017.3F
SAXON HARBOR     1340   57        CALM     1017.3R
$$

LMZ867-665-643>646-011500-
LAKE MICHIGAN

STATION/POSITION TIME  TEMP    WIND        PRES    WAVE
                       AIR SEA DIR/SP/G            HT/PER
                 (UTC) (F)     (DEG/KT/KT) (MB)    (FT/S)
CHAMBERS ISLAND  1300   51     330/ 11/ 16 1015.2R
N MID LAKE BUOY  1350   45 40  330/ 10/ 10 1014.4R   2/ 4
NORTHPORT PIER   1300   52     340/ 16/ 20 1014.9R
SISTER BAY       1244   51     340/ 16/ 19   N/A
ALGOMA LAKESHORE 1310          340/  9/ 12   N/A
KEWAUNEE LAKESHO 1400   53      10/  5/  8 1014.3R
SHEBOYGAN LAKESH 1400   54      10/  9/ 10 1015.4R
PORT WASHINGTON  1300   58     350/  4/  7 1015.6
ATWATER BUOY     1300   57     310/  6/  8 1016.2R
MILWAUKEE LAKESH 1400   56      40/  9/ 11   N/A
KENOSHA   LAKESH 1400   58      50/  5/  6 1014.9S
$$

TC  - TEMPERATURE IN CELSIUS
VSB - VISIBILITY IN STATUTE MILES
WCI - WIND CHILL INDEX
HX  - HEAT INDEX




USA.gov is the U.S. government's official web portal to all federal, state and local government web resources and services.